Location: Newark
(22.3000°N, 114.2000°E)
Time: 08:37:08
(UTC+00:00)

Hubble Space Telescope - Pass Details

Date: 30 October 2019
Orbit: 536 x 540 km, 28.5° (Epoch: 17 November)

Event Time Altitude Azimuth Distance (km) Brightness Sun altitude
Exits shadow 22:01:12 - 285° (WNW) 1,942 2.9 -6.5°
Reaches altitude 10° 22:01:40 10° 288° (WNW) 1,779 2.7 -6.4°
Maximum altitude 22:05:27 35° 355° (N) 869 1.7 -5.6°
Drops below altitude 10° 22:09:15 10° 62° (ENE) 1,778 4.2 -4.7°
Sets 22:11:39 0° 71° (ENE) 2,668 5.4 -4.2°
